This is the latest recevied weather packets stored in our database for station/object AD0YN. If no packets are shown the sender has not sent any weather packets the latest 1 day(s).
| Time | Temp. | Humidity | Pressure | Rain* | Wind** | Luminosity | Snow |
|---|---|---|---|---|---|---|---|
| 1778044836 | 10° C | 76% | 1013.7 hPa | 0 mm | - | 0 W/m² | - |
| 1778044532 | 10° C | 76% | 1013.8 hPa | 0 mm | - | 0 W/m² | - |
| 1778044229 | 10° C | 78% | 1013.7 hPa | 0 mm | - | 0 W/m² | - |
| 1778043927 | 10° C | 78% | 1013.7 hPa | 0 mm | - | 0 W/m² | - |
| 1778042412 | 10° C | 82% | 1013 hPa | 0 mm | - | 0 W/m² | - |
| 1778042109 | 10° C | 82% | 1013.1 hPa | 0 mm | - | 0 W/m² | - |
| 1778041808 | 10° C | 82% | 1012.8 hPa | 0 mm | - | 0 W/m² | - |
| 1778040902 | 10° C | 83% | 1012.8 hPa | 0 mm | - | 0 W/m² | - |
| 1778040599 | 10° C | 83% | 1012.4 hPa | 0 mm | - | 0 W/m² | - |
| 1778039992 | 10° C | 84% | 1012.6 hPa | 0 mm | - | 0 W/m² | - |
| 1778039689 | 10° C | 84% | 1012.5 hPa | 0 mm | - | 0 W/m² | - |
| 1778039083 | 10° C | 84% | 1012.6 hPa | 0 mm | - | 0 W/m² | - |
| 1778038478 | 10° C | 84% | 1012.5 hPa | 0 mm | - | 0 W/m² | - |
| 1778038174 | 10° C | 84% | 1012.6 hPa | 0 mm | - | 0 W/m² | - |
| 1778037871 | 10° C | 84% | 1012.4 hPa | 0 mm | - | 0 W/m² | - |
| 1778037568 | 10° C | 84% | 1012.2 hPa | 0 mm | - | 0 W/m² | - |
| 1778037265 | 10° C | 85% | 1012.3 hPa | 0 mm | - | 0 W/m² | - |
| 1778036963 | 10° C | 83% | 1011.9 hPa | 0 mm | - | 0 W/m² | - |
| 1778036661 | 10° C | 84% | 1012.1 hPa | 0 mm | - | 0 W/m² | - |
| 1778036054 | 10° C | 85% | 1012 hPa | 0 mm | - | 0 W/m² | - |
| 1778035751 | 10° C | 86% | 1012.3 hPa | 0 mm | - | 0 W/m² | - |
| 1778035448 | 10° C | 86% | 1012.2 hPa | 0 mm | - | 0 W/m² | - |
| 1778035144 | 10° C | 85% | 1012.1 hPa | 0 mm | - | 0 W/m² | - |
| 1778034841 | 10° C | 84% | 1012 hPa | 0 mm | - | 0 W/m² | - |
| 1778034537 | 10.56° C | 84% | 1011.9 hPa | 0 mm | - | 0 W/m² | - |
* Rain latest hour (hover to see other rain measurements)
** Current wind speed in m/s (hover to see current wind gust speed)